This demonstration page uses our WeatherBlox Daily Observations layout. Learn more.

Left ArrowRight Arrow

36.17497, -115.13722

Hourly Observations for October 4, 2021

Temp ( °F °C ) Dew Point ( °F °C ) Humidity (%) Winds ( mph kmh ) Pressure ( in mb ) Visibility ( mi km ) Precip ( " mm )
12:53 am 00:53 Clear 71 21.7 32 undefined 24 24 NW 3 6 29.97 1015 10 16 N/A
1:53 am 01:53 Clear 70 21.1 35 1.7 28 28 N N/A 29.97 1015 10 16 N/A
2:53 am 02:53 Clear 70 21.1 36 2.2 29 29 W 5 7 29.97 1015 10 16 N/A
3:53 am 03:53 Clear 69 20.6 35 1.7 29 29 WNW 7 11 29.97 1015 10 16 N/A
4:53 am 04:53 Clear 68 20 35 1.7 30 30 WNW 7 11 29.98 1015 10 16 N/A
5:53 am 05:53 Clear 67 19.4 36 2.2 32 32 NNW 5 7 29.99 1016 10 16 N/A
6:53 am 06:53 Sunny 67 19.4 36 2.2 32 32 WNW 3 6 30.01 1016 10 16 N/A
7:53 am 07:53 Sunny 69 20.6 37 2.8 31 31 NNW 6 9 30.02 1017 10 16 N/A
8:53 am 08:53 Sunny 75 23.9 37 2.8 25 25 NNW 5 7 30.03 1017 10 16 N/A
9:53 am 09:53 Sunny 79 26.1 35 1.7 20 20 SE 5 7 30.04 1017 10 16 N/A
10:53 am 10:53 Sunny 83 28.3 33 0.6 17 17 SE 6 9 30.04 1017 10 16 N/A
11:53 am 11:53 Sunny 85 29.4 33 0.6 15 15 E 5 7 30.02 1017 10 16 N/A
12:53 pm 12:53 Sunny 87 30.6 35 1.7 16 16 VRB 5 7 30.00 1016 10 16 N/A
1:53 pm 13:53 Sunny 87 30.6 35 1.7 16 16 WSW 3 6 29.97 1015 10 16 N/A
2:53 pm 14:53 Sunny 90 32.2 36 2.2 15 15 N N/A 29.95 1014 10 16 N/A
3:53 pm 15:53 Sunny 90 32.2 36 2.2 15 15 E 5 7 29.93 1014 10 16 N/A
4:53 pm 16:53 Sunny 88 31.1 35 1.7 15 15 SE 8 13 29.92 1013 10 16 N/A
5:53 pm 17:53 Sunny 87 30.6 34 1.1 15 15 ESE 3 6 29.91 1013 10 16 N/A
6:53 pm 18:53 Clear 84 28.9 34 1.1 17 17 N N/A 29.92 1013 10 16 N/A
7:53 pm 19:53 Clear 81 27.2 37 2.8 21 21 NW 6 9 29.92 1013 10 16 N/A
8:53 pm 20:53 Clear 80 26.7 40 4.4 24 24 W 6 9 29.92 1013 10 16 N/A
9:53 pm 21:53 Clear 79 26.1 40 4.4 25 25 W 5 7 29.92 1013 10 16 N/A
10:53 pm 22:53 Clear 77 25 39 3.9 26 26 NNE 3 6 29.93 1014 10 16 N/A
11:53 pm 23:53 Mostly Cloudy 75 23.9 40 4.4 28 28 WNW 6 9 29.92 1013 10 16 N/A

Powered by AerisWeather